ONEWEB-0090 (45427 NORAD) Tracking and Keplerian Element Data

This shows tracking and keplerian element data for the satellite.

Feedback or suggestion? Click here.




ElementValue
Catalog45427
NameONEWEB-0090
Epoch Orbit3163
Epoch Day293.91673611
Epoch Year2020
RAAN72.527
Inclination87.7829
Eccentricity0.0024717
Argument of Perigee252.3133
Mean Anonmoly282.6781
Mean Motion13.98432252
Decay Rate-0.01331265
L11 45427U 20020D 20293.91673611 -.01331265 00000-0 -99291+0 0 9998
L22 45427 87.7829 72.5270 0024717 252.3133 282.6781 13.98432252 31634

Live tracking and technical data element details for ONEWEB-0090 (NORAD 45427). ONEWEB-0090 can be tracked NOW for your location showing map with azimuth and elevation plus other details from your city location.

Track the satellite on the map from your city or location and see movement details for azimuth, elevation, latitude, longitude, range, height, and movement on the map or in text.







IsCatalogInMostPopularTable: catalog: 45427, numindb: 45
Update: records affected: 1



GetName: 45427 ONEWEB-0090

Hit Count: updated at: Tue, 20 Oct 2020 11:55:37 GMT